TIBA-1

Last updated on Tue Sep 22 2026 00:03:15 GMT+0000 (Coordinated Universal Time)

1 44800U 19080A 26264.56741771 .00000000 00000+0 00000+0 0 9990 2 44800 0.0281 10.8099 0002254 171.1125 58.2640 1.00270895 25012
UTC large
Height (km)
Speed (km/s)
/
Latitude / Longitude
Inclination (degrees)
Orbital Period (minutes)
Azimuth
Elevation
Range (km)
Doppler Factor

Next 0 passes for location: London (51.5072 / 0.1276)

No passes found over London.
TIBA-1